BEIDOU-3 G4 (C62)

Last updated on Sat Aug 15 2026 00:03:26 GMT+0000 (Coordinated Universal Time)

1 56564U 23066A 26226.59566553 -.00000296 00000+0 00000+0 0 9991 2 56564 0.4439 347.7268 0005267 191.9286 137.8587 1.00270760 11971
UTC large
Height (km)
Speed (km/s)
/
Latitude / Longitude
Inclination (degrees)
Orbital Period (minutes)
Azimuth
Elevation
Range (km)
Doppler Factor

Next 0 passes for location: London (51.5072 / 0.1276)

No passes found over London.
BEIDOU-3 G4 (C62)